Flag for Venezuela Weather past 2 weeks in Caracas, Venezuela

Now
79 °F

Passing clouds.


Feels Like: 82 °F
Forecast: 67 / 78 °F
Wind: 3 mph from Northeast

Location: Caracas / Maiquetia Aerop. Intl. Simon Bolivar

Current Time: Aug 31, 2015 at 8:22:12 PM

Latest Report: Aug 31, 2015 at 7:30 PM


Visibility: N/A

Pressure: 29.92 "Hg (27.07 "Hg at 875m altitude)

Humidity: 79%

Dew point: 72 °F

Location of CaracasLocation

Historic Weather in Caracas — Graph

°F

Caracas temperature yesterday

Maximum temperature yesterday: 90 °F (at 4:30 PM)
Minimum temperature yesterday: 75 °F (at 3:30 AM)
Average temperature yesterday: 81 °F

Past Weeks' High & Low Weather Summary

 TemperatureHumidityPressure
High91 °F (Aug 19, 12:30 PM)94% (Aug 22, 9:30 PM)29.98 "Hg (Aug 22, 9:30 PM)
Low75 °F (Aug 19, 7:30 AM)59% (Aug 19, 11:30 AM)29.80 "Hg (Aug 24, 4:30 PM)
Average82 °F76%29.89 "Hg
* Reported Aug 16 6:30 PM — Aug 31 6:30 PM, Caracas, Weather by CustomWeather, © 2015

Note: Actual official high and low records may vary slightly from our data, if they occured in-between our weather recording intervals... More about our weather records

Advertising

Caracas weather history for previous 24 hours

 ConditionsComfort  
Time TempWeatherWind HumidityBarometerVisibility
6:30 PM
Mon, Aug 31
79 °FPassing clouds.No wind84%29.92 "HgN/A
5:30 PM81 °FScattered clouds.No wind79%29.92 "HgN/A
4:30 PM81 °FScattered clouds.No wind79%29.92 "Hg6 mi
3:30 PM84 °FScattered clouds.3 mph70%29.95 "HgN/A
2:30 PM84 °FScattered clouds.2 mph74%29.95 "HgN/A
1:30 PM82 °FScattered clouds.No wind79%29.95 "HgN/A
12:30 PM88 °FScattered clouds.3 mph70%29.98 "HgN/A
11:30 AM88 °FScattered clouds.3 mph70%29.98 "HgN/A
10:30 AM88 °FPassing clouds.2 mph66%29.98 "HgN/A
9:30 AM86 °FPassing clouds.3 mph62%29.95 "HgN/A
8:30 AM84 °FPassing clouds.3 mph66%29.95 "HgN/A
7:30 AM77 °FPassing clouds.No wind69%29.92 "HgN/A
6:30 AM75 °FScattered clouds.No wind78%29.92 "HgN/A
5:30 AM75 °FScattered clouds.No wind78%29.89 "HgN/A
4:30 AM75 °FPassing clouds.No wind74%29.89 "HgN/A
3:30 AM77 °FPassing clouds.No wind74%29.89 "HgN/A
2:30 AM77 °FPassing clouds.No wind74%29.92 "HgN/A
1:30 AM79 °FPassing clouds.No wind70%29.92 "HgN/A
12:30 AM79 °FPassing clouds.No wind70%29.92 "HgN/A
11:30 PM
Sun, Aug 30
81 °FPassing clouds.No wind66%29.95 "HgN/A
10:30 PM81 °FPassing clouds.No wind66%29.95 "HgN/A
9:30 PM81 °FPassing clouds.No wind70%29.92 "HgN/A
8:30 PM81 °FPassing clouds.3 mph70%29.89 "HgN/A
Weather by CustomWeather, © 2015

See weather overviewHow to use our weather pages